����������;��������(kVARh)
2016-03-07 00:00;5,45
2016-03-07 00:15;8,6
2016-03-07 00:30;11,55
2016-03-07 00:45;1,4
2016-03-07 01:00;0,6
2016-03-07 01:15;14,4
2016-03-07 01:30;17,05
2016-03-07 01:45;11,35
2016-03-07 02:00;5,15
2016-03-07 02:15;2,5
2016-03-07 02:30;1,75
2016-03-07 02:45;1,25
2016-03-07 03:00;2,65
2016-03-07 03:15;3
2016-03-07 03:30;1,45
2016-03-07 03:45;3,6
2016-03-07 04:00;3,05
2016-03-07 04:15;2,1
2016-03-07 04:30;2,5
2016-03-07 04:45;1,8
2016-03-07 05:00;2
2016-03-07 05:15;2,7
2016-03-07 05:30;2,3
2016-03-07 05:45;2,05
2016-03-07 06:00;2,85
2016-03-07 06:15;2,35
2016-03-07 06:30;1,5
2016-03-07 06:45;1,9
2016-03-07 07:00;2,75
2016-03-07 07:15;4,7
2016-03-07 07:30;2,2
2016-03-07 07:45;4,8
2016-03-07 08:00;3,85
2016-03-07 08:15;9,2
2016-03-07 08:30;22,45
2016-03-07 08:45;29,1
2016-03-07 09:00;37,6
2016-03-07 09:15;42,45
2016-03-07 09:30;44,95
2016-03-07 09:45;34,15
2016-03-07 10:00;36,6
2016-03-07 10:15;32,4
2016-03-07 10:30;41,4
2016-03-07 10:45;39,9
2016-03-07 11:00;43,15
2016-03-07 11:15;41,95
2016-03-07 11:30;43,35
2016-03-07 11:45;43,1
2016-03-07 12:00;44,35
2016-03-07 12:15;43,7
2016-03-07 12:30;40,25
2016-03-07 12:45;47,4
2016-03-07 13:00;42,6
2016-03-07 13:15;43,95
2016-03-07 13:30;38,65
2016-03-07 13:45;43,9
2016-03-07 14:00;38,9
2016-03-07 14:15;46,8
2016-03-07 14:30;41,4
2016-03-07 14:45;46,2
2016-03-07 15:00;54,7
2016-03-07 15:15;53,5
2016-03-07 15:30;49,8
2016-03-07 15:45;43,45
2016-03-07 16:00;48,95
2016-03-07 16:15;40,8
2016-03-07 16:30;44,6
2016-03-07 16:45;43,15
2016-03-07 17:00;38,85
2016-03-07 17:15;33,95
2016-03-07 17:30;34,45
2016-03-07 17:45;33,6
2016-03-07 18:00;37,95
2016-03-07 18:15;35,35
2016-03-07 18:30;33,9
2016-03-07 18:45;29,9
2016-03-07 19:00;25,1
2016-03-07 19:15;21,3
2016-03-07 19:30;19,35
2016-03-07 19:45;17,4
2016-03-07 20:00;16,35
2016-03-07 20:15;14
2016-03-07 20:30;12,9
2016-03-07 20:45;12,95
2016-03-07 21:00;10,3
2016-03-07 21:15;12,2
2016-03-07 21:30;11,8
2016-03-07 21:45;9,35
2016-03-07 22:00;10,65
2016-03-07 22:15;14,2
2016-03-07 22:30;14,3
2016-03-07 22:45;14,15
2016-03-07 23:00;9,65
2016-03-07 23:15;10,35
2016-03-07 23:30;2,5
2016-03-07 23:45;0,1
2016-03-08 00:00;0
2016-03-08 00:15;0
2016-03-08 00:30;0
2016-03-08 00:45;0
2016-03-08 01:00;0
2016-03-08 01:15;0
2016-03-08 01:30;4,55
2016-03-08 01:45;8,9
2016-03-08 02:00;4,1
2016-03-08 02:15;0,95
2016-03-08 02:30;0,1
2016-03-08 02:45;0,5
2016-03-08 03:00;0,6
2016-03-08 03:15;1,1
2016-03-08 03:30;1
2016-03-08 03:45;1,6
2016-03-08 04:00;1,4
2016-03-08 04:15;0,55
2016-03-08 04:30;0,6
2016-03-08 04:45;0,65
2016-03-08 05:00;0,6
2016-03-08 05:15;0,45
2016-03-08 05:30;0,95
2016-03-08 05:45;0,9
2016-03-08 06:00;1,15
2016-03-08 06:15;0,4
2016-03-08 06:30;0,35
2016-03-08 06:45;1,15
2016-03-08 07:00;1,55
2016-03-08 07:15;2,25
2016-03-08 07:30;0,95
2016-03-08 07:45;4,6
2016-03-08 08:00;14,9
2016-03-08 08:15;8,1
2016-03-08 08:30;10,4
2016-03-08 08:45;10,4
2016-03-08 09:00;15,3
2016-03-08 09:15;26,95
2016-03-08 09:30;27,95
2016-03-08 09:45;29,5
2016-03-08 10:00;28,35
2016-03-08 10:15;28,25
2016-03-08 10:30;31
2016-03-08 10:45;32,2
2016-03-08 11:00;27,8
2016-03-08 11:15;22,9
2016-03-08 11:30;23,5
2016-03-08 11:45;24
2016-03-08 12:00;26,45
2016-03-08 12:15;30,3
2016-03-08 12:30;31,4
2016-03-08 12:45;32,8
2016-03-08 13:00;33,7
2016-03-08 13:15;34,4
2016-03-08 13:30;33,75
2016-03-08 13:45;30,9
2016-03-08 14:00;37,1
2016-03-08 14:15;31,1
2016-03-08 14:30;30,6
2016-03-08 14:45;27,4
2016-03-08 15:00;29,05
2016-03-08 15:15;32,5
2016-03-08 15:30;32,75
2016-03-08 15:45;32,25
2016-03-08 16:00;35,85
2016-03-08 16:15;35,75
2016-03-08 16:30;37,05
2016-03-08 16:45;34,05
2016-03-08 17:00;33,1
2016-03-08 17:15;29,5
2016-03-08 17:30;29,9
2016-03-08 17:45;23
2016-03-08 18:00;24,85
2016-03-08 18:15;23,5
2016-03-08 18:30;21,25
2016-03-08 18:45;18,95
2016-03-08 19:00;21,4
2016-03-08 19:15;22,1
2016-03-08 19:30;21,5
2016-03-08 19:45;21,5
2016-03-08 20:00;19,1
2016-03-08 20:15;12,7
2016-03-08 20:30;10,6
2016-03-08 20:45;6,8
2016-03-08 21:00;11,6
2016-03-08 21:15;12,1
2016-03-08 21:30;6,25
2016-03-08 21:45;6,45
2016-03-08 22:00;7,15
2016-03-08 22:15;7,75
2016-03-08 22:30;7
2016-03-08 22:45;8,5
2016-03-08 23:00;6,3
2016-03-08 23:15;6,4
2016-03-08 23:30;2,3
2016-03-08 23:45;0
2016-03-09 00:00;0
2016-03-09 00:15;0
2016-03-09 00:30;0,05
2016-03-09 00:45;0
2016-03-09 01:00;0,15
2016-03-09 01:15;0,25
2016-03-09 01:30;0
2016-03-09 01:45;0,1
2016-03-09 02:00;0,1
2016-03-09 02:15;12,25
2016-03-09 02:30;9,4
2016-03-09 02:45;3,2
2016-03-09 03:00;3
2016-03-09 03:15;1,5
2016-03-09 03:30;1,95
2016-03-09 03:45;2
2016-03-09 04:00;1,85
2016-03-09 04:15;1,6
2016-03-09 04:30;3
2016-03-09 04:45;1,85
2016-03-09 05:00;1,9
2016-03-09 05:15;1,85
2016-03-09 05:30;2,15
2016-03-09 05:45;1,85
2016-03-09 06:00;1,05
2016-03-09 06:15;1,2
2016-03-09 06:30;4,65
2016-03-09 06:45;11,15
2016-03-09 07:00;11,35
2016-03-09 07:15;14,55
2016-03-09 07:30;8,5
2016-03-09 07:45;13,8
2016-03-09 08:00;17,9
2016-03-09 08:15;16,15
2016-03-09 08:30;19,6
2016-03-09 08:45;27,1
2016-03-09 09:00;24,15
2016-03-09 09:15;28,45
2016-03-09 09:30;25,3
2016-03-09 09:45;25,9
2016-03-09 10:00;27,4
2016-03-09 10:15;28,7
2016-03-09 10:30;31,3
2016-03-09 10:45;28,8
2016-03-09 11:00;30,3
2016-03-09 11:15;35,7
2016-03-09 11:30;34,6
2016-03-09 11:45;32,4
2016-03-09 12:00;31,7
2016-03-09 12:15;37,1
2016-03-09 12:30;34,5
2016-03-09 12:45;35,6
2016-03-09 13:00;30,3
2016-03-09 13:15;38,8
2016-03-09 13:30;36,7
2016-03-09 13:45;33,3
2016-03-09 14:00;27,4
2016-03-09 14:15;30,9
2016-03-09 14:30;34,9
2016-03-09 14:45;34,2
2016-03-09 15:00;34,3
2016-03-09 15:15;35,95
2016-03-09 15:30;38,45
2016-03-09 15:45;37,1
2016-03-09 16:00;36,3
2016-03-09 16:15;35,5
2016-03-09 16:30;33,8
2016-03-09 16:45;37,8
2016-03-09 17:00;33,2
2016-03-09 17:15;29,75
2016-03-09 17:30;25,4
2016-03-09 17:45;24,2
2016-03-09 18:00;23,55
2016-03-09 18:15;23,05
2016-03-09 18:30;21,2
2016-03-09 18:45;22
2016-03-09 19:00;19,35
2016-03-09 19:15;17,2
2016-03-09 19:30;21,55
2016-03-09 19:45;20,3
2016-03-09 20:00;16,5
2016-03-09 20:15;14,65
2016-03-09 20:30;11,85
2016-03-09 20:45;8,45
2016-03-09 21:00;9,5
2016-03-09 21:15;4,55
2016-03-09 21:30;1,35
2016-03-09 21:45;1,2
2016-03-09 22:00;3,35
2016-03-09 22:15;1,55
2016-03-09 22:30;0,85
2016-03-09 22:45;0,35
2016-03-09 23:00;0,4
2016-03-09 23:15;0,2
2016-03-09 23:30;0
2016-03-09 23:45;0
2016-03-10 00:00;0
2016-03-10 00:15;0
2016-03-10 00:30;0
2016-03-10 00:45;0
2016-03-10 01:00;0,05
2016-03-10 01:15;0,15
2016-03-10 01:30;0,3
2016-03-10 01:45;0,25
2016-03-10 02:00;0
2016-03-10 02:15;0,05
2016-03-10 02:30;0,2
2016-03-10 02:45;8,3
2016-03-10 03:00;13,3
2016-03-10 03:15;7,5
2016-03-10 03:30;3,5
2016-03-10 03:45;2,9
2016-03-10 04:00;2,65
2016-03-10 04:15;1,9
2016-03-10 04:30;1,55
2016-03-10 04:45;1,95
2016-03-10 05:00;0,4
2016-03-10 05:15;0,85
2016-03-10 05:30;1,6
2016-03-10 05:45;0,65
2016-03-10 06:00;1,05
2016-03-10 06:15;1,35
2016-03-10 06:30;2,8
2016-03-10 06:45;2,85
2016-03-10 07:00;11,6
2016-03-10 07:15;15,45
2016-03-10 07:30;12,4
2016-03-10 07:45;16
2016-03-10 08:00;24,6
2016-03-10 08:15;10,65
2016-03-10 08:30;11,75
2016-03-10 08:45;11,85
2016-03-10 09:00;15,3
2016-03-10 09:15;31,75
2016-03-10 09:30;29,65
2016-03-10 09:45;25,05
2016-03-10 10:00;33,6
2016-03-10 10:15;28,75
2016-03-10 10:30;36,35
2016-03-10 10:45;25,8
2016-03-10 11:00;37,9
2016-03-10 11:15;32,2
2016-03-10 11:30;30,75
2016-03-10 11:45;31,05
2016-03-10 12:00;43,8
2016-03-10 12:15;37,1
2016-03-10 12:30;43,45
2016-03-10 12:45;39,2
2016-03-10 13:00;43,8
2016-03-10 13:15;46,65
2016-03-10 13:30;50,15
2016-03-10 13:45;40,3
2016-03-10 14:00;43,95
2016-03-10 14:15;44,35
2016-03-10 14:30;46,9
2016-03-10 14:45;52,85
2016-03-10 15:00;45,25
2016-03-10 15:15;54,6
2016-03-10 15:30;45,9
2016-03-10 15:45;43,2
2016-03-10 16:00;38,45
2016-03-10 16:15;42,9
2016-03-10 16:30;46,75
2016-03-10 16:45;50,45
2016-03-10 17:00;49,65
2016-03-10 17:15;48,3
2016-03-10 17:30;44,55
2016-03-10 17:45;43,55
2016-03-10 18:00;39,35
2016-03-10 18:15;35,85
2016-03-10 18:30;36,55
2016-03-10 18:45;32,75
2016-03-10 19:00;28,6
2016-03-10 19:15;25,9
2016-03-10 19:30;22,2
2016-03-10 19:45;21,35
2016-03-10 20:00;18,1
2016-03-10 20:15;19,4
2016-03-10 20:30;15,65
2016-03-10 20:45;17,5
2016-03-10 21:00;21,55
2016-03-10 21:15;18,35
2016-03-10 21:30;19,9
2016-03-10 21:45;18,75
2016-03-10 22:00;20,25
2016-03-10 22:15;17,8
2016-03-10 22:30;18,2
2016-03-10 22:45;4,5
2016-03-10 23:00;4,85
2016-03-10 23:15;6,85
2016-03-10 23:30;6,15
2016-03-10 23:45;6,05
2016-03-11 00:00;8,85
2016-03-11 00:15;6,05
2016-03-11 00:30;2,75
2016-03-11 00:45;0,6
2016-03-11 01:00;0,05
2016-03-11 01:15;0
2016-03-11 01:30;0,15
2016-03-11 01:45;0
2016-03-11 02:00;0
2016-03-11 02:15;0,05
2016-03-11 02:30;0,05
2016-03-11 02:45;0
2016-03-11 03:00;0,35
2016-03-11 03:15;9,25
2016-03-11 03:30;11,15
2016-03-11 03:45;5,05
2016-03-11 04:00;1,95
2016-03-11 04:15;0,7
2016-03-11 04:30;1,25
2016-03-11 04:45;0,55
2016-03-11 05:00;1,05
2016-03-11 05:15;0,6
2016-03-11 05:30;1,35
2016-03-11 05:45;0,45
2016-03-11 06:00;0,75
2016-03-11 06:15;1,1
2016-03-11 06:30;0,9
2016-03-11 06:45;1,2
2016-03-11 07:00;3,3
2016-03-11 07:15;12,05
2016-03-11 07:30;9,25
2016-03-11 07:45;14,1
2016-03-11 08:00;23,9
2016-03-11 08:15;19,4
2016-03-11 08:30;22,25
2016-03-11 08:45;18,35
2016-03-11 09:00;26,7
2016-03-11 09:15;34,4
2016-03-11 09:30;29,4
2016-03-11 09:45;33,7
2016-03-11 10:00;35,8
2016-03-11 10:15;35,3
2016-03-11 10:30;35,55
2016-03-11 10:45;35,15
2016-03-11 11:00;33,7
2016-03-11 11:15;36
2016-03-11 11:30;24,9
2016-03-11 11:45;28,9
2016-03-11 12:00;32,5
2016-03-11 12:15;32,55
2016-03-11 12:30;35,35
2016-03-11 12:45;31,5
2016-03-11 13:00;33,7
2016-03-11 13:15;31,4
2016-03-11 13:30;38,55
2016-03-11 13:45;28,35
2016-03-11 14:00;39,7
2016-03-11 14:15;28,1
2016-03-11 14:30;37,4
2016-03-11 14:45;33,25
2016-03-11 15:00;37,45
2016-03-11 15:15;36,65
2016-03-11 15:30;30,95
2016-03-11 15:45;35,85
2016-03-11 16:00;31,05
2016-03-11 16:15;42,6
2016-03-11 16:30;36,3
2016-03-11 16:45;34,65
2016-03-11 17:00;29,15
2016-03-11 17:15;24,8
2016-03-11 17:30;18,6
2016-03-11 17:45;14,7
2016-03-11 18:00;15,45
2016-03-11 18:15;13,55
2016-03-11 18:30;20,7
2016-03-11 18:45;20,5
2016-03-11 19:00;23,25
2016-03-11 19:15;17,75
2016-03-11 19:30;17,95
2016-03-11 19:45;14,55
2016-03-11 20:00;14,4
2016-03-11 20:15;10,7
2016-03-11 20:30;12,45
2016-03-11 20:45;12,95
2016-03-11 21:00;10,15
2016-03-11 21:15;13,35
2016-03-11 21:30;9,25
2016-03-11 21:45;5,6
2016-03-11 22:00;5,1
2016-03-11 22:15;0,65
2016-03-11 22:30;0,6
2016-03-11 22:45;1
2016-03-11 23:00;1,2
2016-03-11 23:15;0,15
2016-03-11 23:30;0,05
2016-03-11 23:45;0,05
2016-03-12 00:00;0,25
2016-03-12 00:15;0,3
2016-03-12 00:30;0,65
2016-03-12 00:45;0,6
2016-03-12 01:00;0,75
2016-03-12 01:15;0,8
2016-03-12 01:30;1,25
2016-03-12 01:45;1,2
2016-03-12 02:00;0,9
2016-03-12 02:15;0,35
2016-03-12 02:30;1,2
2016-03-12 02:45;0,9
2016-03-12 03:00;1,45
2016-03-12 03:15;0,95
2016-03-12 03:30;1,4
2016-03-12 03:45;0,9
2016-03-12 04:00;1,2
2016-03-12 04:15;1,3
2016-03-12 04:30;3,8
2016-03-12 04:45;3,4
2016-03-12 05:00;0,7
2016-03-12 05:15;1
2016-03-12 05:30;0,3
2016-03-12 05:45;0,3
2016-03-12 06:00;1
2016-03-12 06:15;1,6
2016-03-12 06:30;0,75
2016-03-12 06:45;0,3
2016-03-12 07:00;0,3
2016-03-12 07:15;0,05
2016-03-12 07:30;0,15
2016-03-12 07:45;0
2016-03-12 08:00;0
2016-03-12 08:15;0
2016-03-12 08:30;0
2016-03-12 08:45;0
2016-03-12 09:00;0
2016-03-12 09:15;0,05
2016-03-12 09:30;0,1
2016-03-12 09:45;0
2016-03-12 10:00;0
2016-03-12 10:15;0
2016-03-12 10:30;0
2016-03-12 10:45;0
2016-03-12 11:00;0
2016-03-12 11:15;0
2016-03-12 11:30;0
2016-03-12 11:45;0
2016-03-12 12:00;0
2016-03-12 12:15;0
2016-03-12 12:30;0,05
2016-03-12 12:45;0
2016-03-12 13:00;0
2016-03-12 13:15;0
2016-03-12 13:30;0,05
2016-03-12 13:45;0,05
2016-03-12 14:00;0
2016-03-12 14:15;0,05
2016-03-12 14:30;0,1
2016-03-12 14:45;0,1
2016-03-12 15:00;0,3
2016-03-12 15:15;1,3
2016-03-12 15:30;0,9
2016-03-12 15:45;0,8
2016-03-12 16:00;0,85
2016-03-12 16:15;1,55
2016-03-12 16:30;2,05
2016-03-12 16:45;4,9
2016-03-12 17:00;5,05
2016-03-12 17:15;3,75
2016-03-12 17:30;1,95
2016-03-12 17:45;0,75
2016-03-12 18:00;0,35
2016-03-12 18:15;0,1
2016-03-12 18:30;0,05
2016-03-12 18:45;0,05
2016-03-12 19:00;0,6
2016-03-12 19:15;0,75
2016-03-12 19:30;0,6
2016-03-12 19:45;1,2
2016-03-12 20:00;0,9
2016-03-12 20:15;0,55
2016-03-12 20:30;2,55
2016-03-12 20:45;2,9
2016-03-12 21:00;3,7
2016-03-12 21:15;5,9
2016-03-12 21:30;8,85
2016-03-12 21:45;2,9
2016-03-12 22:00;2,7
2016-03-12 22:15;2,45
2016-03-12 22:30;4,15
2016-03-12 22:45;0,8
2016-03-12 23:00;1,5
2016-03-12 23:15;1,5
2016-03-12 23:30;1,4
2016-03-12 23:45;1,15
2016-03-13 00:00;1,15
2016-03-13 00:15;1,55
2016-03-13 00:30;1,5
2016-03-13 00:45;0,8
2016-03-13 01:00;1,25
2016-03-13 01:15;1,25
2016-03-13 01:30;1,9
2016-03-13 01:45;2,9
2016-03-13 02:00;3,8
2016-03-13 02:15;3,5
2016-03-13 02:30;3,4
2016-03-13 02:45;3,45
2016-03-13 03:00;7,75
2016-03-13 03:15;4,35
2016-03-13 03:30;0,85
2016-03-13 03:45;0,75
2016-03-13 04:00;1,3
2016-03-13 04:15;1
2016-03-13 04:30;0,85
2016-03-13 04:45;0,75
2016-03-13 05:00;1,05
2016-03-13 05:15;1,2
2016-03-13 05:30;0,75
2016-03-13 05:45;1,2
2016-03-13 06:00;0,7
2016-03-13 06:15;0,9
2016-03-13 06:30;1,3
2016-03-13 06:45;2,8
2016-03-13 07:00;5,4
2016-03-13 07:15;5,5
2016-03-13 07:30;7,65
2016-03-13 07:45;6,15
2016-03-13 08:00;5,85
2016-03-13 08:15;2,75
2016-03-13 08:30;1,15
2016-03-13 08:45;0,25
2016-03-13 09:00;0,2
2016-03-13 09:15;0,35
2016-03-13 09:30;0,65
2016-03-13 09:45;0
2016-03-13 10:00;0,05
2016-03-13 10:15;0
2016-03-13 10:30;0
2016-03-13 10:45;0
2016-03-13 11:00;0
2016-03-13 11:15;0
2016-03-13 11:30;0
2016-03-13 11:45;0
2016-03-13 12:00;0
2016-03-13 12:15;0
2016-03-13 12:30;0
2016-03-13 12:45;0
2016-03-13 13:00;0,2
2016-03-13 13:15;0,8
2016-03-13 13:30;0,7
2016-03-13 13:45;0,5
2016-03-13 14:00;0,4
2016-03-13 14:15;0,75
2016-03-13 14:30;3
2016-03-13 14:45;3,55
2016-03-13 15:00;1,7
2016-03-13 15:15;1,65
2016-03-13 15:30;1,3
2016-03-13 15:45;0,95
2016-03-13 16:00;0,85
2016-03-13 16:15;0,45
2016-03-13 16:30;0,25
2016-03-13 16:45;0,25
2016-03-13 17:00;0,35
2016-03-13 17:15;0,35
2016-03-13 17:30;0,3
2016-03-13 17:45;0,15
2016-03-13 18:00;0,05
2016-03-13 18:15;0
2016-03-13 18:30;0
2016-03-13 18:45;0
2016-03-13 19:00;0,05
2016-03-13 19:15;0,05
2016-03-13 19:30;0,05
2016-03-13 19:45;0
2016-03-13 20:00;0,05
2016-03-13 20:15;1,05
2016-03-13 20:30;0,8
2016-03-13 20:45;0,6
2016-03-13 21:00;0,6
2016-03-13 21:15;1,15
2016-03-13 21:30;0,55
2016-03-13 21:45;1
2016-03-13 22:00;0,5
2016-03-13 22:15;0,2
2016-03-13 22:30;0,6
2016-03-13 22:45;0,5
2016-03-13 23:00;0,6
2016-03-13 23:15;1,35
2016-03-13 23:30;0,8
2016-03-13 23:45;0

